Powrót do katalogu

ECHOSTAR 7

AktywnyŁącznośćGEO
NORAD 27378·PAYLOAD·🇺🇸 United States

Wystrzelony Feb 21, 2002 z Cape Canaveral Space Force Station

Loading…

TLE

ŚwieżeSource: Space-Track

Epoka: Sep 14, 2026, 13:15 UTC

1 27378U 02006A   26257.55238694  .00000103  00000-0  00000-0 0  9993
2 27378   4.2383  76.2485 0002130 111.7193 209.1239  0.99843096 51426

Śledź ECHOSTAR 7 w czasie rzeczywistym z AllMySat

Download on the App Store